Location: Newark
(27.2452°N, 107.0032°W)
Time: 20:53:08
(UTC+00:00)

ISS - Visible Passes

Search period start: 14 December 2019 00:00
Search period end: 24 December 2019 00:00
Orbit: 411 x 421 km, 51.6° (Epoch: 15 December)

Date Brightness Start Highest point End Pass type
(mag) Time Alt. Az. Time Alt. Az. Time Alt. Az.
15 Dec -0.5 01:14:26 10° W 01:16:27 15° SW 01:18:29 10° SSW visible
19 Dec -1.3 13:00:27 10° S 13:03:17 26° SE 13:06:06 10° ENE visible
20 Dec -0.5 12:13:16 10° SSE 12:14:53 13° SE 12:16:30 10° E visible
21 Dec -3.9 12:59:30 10° SW 13:02:47 69° NW 13:06:04 10° NE visible
22 Dec -3.0 12:13:38 42° S 12:14:17 51° SE 12:17:30 10° NE visible
23 Dec -2.3 13:01:51 18° WNW 13:02:28 19° NW 13:04:56 10° N visible
